EHI
14 14 13 12 12 12 13 14 14 14 15 16 12 7 6 5 5 5 5 5 5 5 5 3 3 4 5 5 5 4 3 3 2 1 0 1 0 0 0 0 0 0 0
17 16 15 13 11 11 12 13 13 13 13 14 12 9 8 7 5 5 5 5 5 4 4 3 3 3 5 5 5 3 3 3 2 1 1 1 1 0 0 0 0 0 0
19 19 18 16 13 12 11 11 11 12 12 11 11 9 8 7 6 6 6 6 5 4 3 3 3 2 3 4 3 2 2 3 3 2 2 2 1 0 0 0 0 0 0
20 20 20 19 16 14 12 10 11 11 11 10 10 8 5 5 6 6 6 7 7 6 4 3 3 2 1 1 1 1 1 2 3 3 3 2 1 1 1 1 1 1 0
19 18 19 19 17 15 13 11 10 9 9 9 9 7 5 4 4 4 4 5 7 8 7 5 3 2 1 0 0 1 1 2 2 2 2 2 2 2 2 2 2 2 1
15 16 18 19 18 16 13 10 9 8 7 6 6 5 4 3 2 1 1 3 6 8 8 6 4 3 2 1 0 1 1 2 2 2 1 1 2 3 3 3 3 2 1
15 16 18 18 18 15 12 10 9 7 6 4 2 2 1 1 1 0 0 1 3 6 7 7 6 4 3 3 2 2 2 1 1 1 1 0 1 3 3 3 2 1 1
17 17 17 17 17 14 11 9 7 6 4 2 1 0 0 0 0 0 0 0 1 3 4 5 5 5 5 4 5 4 3 2 1 0 0 0 1 2 3 3 2 1 1
14 14 15 16 15 12 9 7 5 4 3 1 0 0 0 0 0 0 0 0 0 1 2 3 3 4 3 3 4 5 5 3 1 1 0 0 0 1 1 2 1 1 1
10 11 12 13 12 10 7 6 6 5 3 1 0 0 0 0 0 0 0 0 0 0 1 1 1 1 1 1 2 3 3 3 3 2 1 1 1 1 1 1 1 0 0
8 9 10 11 10 8 6 6 6 5 3 1 0 0 0 0 0 0 0 0 0 0 0 0 0 0 0 0 0 1 2 2 4 3 2 2 2 2 2 2 2 1 1
7 8 9 10 9 7 5 4 4 4 2 0 0 0 0 0 0 0 0 0 0 0 0 0 0 0 0 0 0 0 0 1 2 2 2 3 3 3 3 3 3 3 2
6 6 6 8 9 7 5 3 3 2 1 0 0 0 1 1 1 1 1 0 0 0 1 0 0 0 0 0 0 0 0 0 0 1 2 3 3 3 3 3 3 3 3
4 3 3 5 6 7 6 5 4 3 1 1 1 1 2 2 2 2 2 1 0 1 1 1 1 1 1 1 1 0 0 0 0 1 1 2 2 2 2 1 1 2 3
3 1 1 2 3 5 6 6 6 4 2 2 2 2 2 2 1 1 1 1 0 1 1 1 2 2 2 2 2 1 0 0 0 0 0 0 0 1 1 0 0 2 3
2 1 0 0 1 2 4 5 4 2 1 1 1 1 1 1 0 0 0 0 0 0 0 1 2 3 3 3 3 2 1 0 0 0 0 0 0 0 0 0 0 1 2
1 0 0 0 0 0 1 2 2 1 0 0 0 0 0 0 0 0 0 0 0 0 0 0 1 1 2 3 3 3 2 1 0 0 0 0 0 0 0 0 0 1 1
1 0 0 0 0 0 0 1 2 2 1 0 0 0 0 0 0 0 0 0 0 0 0 0 0 0 1 2 3 3 3 1 0 0 0 0 0 0 0 0 0 0 0
0 0 0 0 0 0 0 0 2 3 2 1 0 0 0 0 0 0 0 0 0 0 0 0 0 0 0 1 3 3 3 2 0 0 0 0 0 0 0 0 0 0 0
1 1 1 1 0 0 0 1 2 3 2 1 0 0 0 0 0 0 0 0 0 0 0 0 0 0 0 1 2 2 2 1 0 0 0 0 0 0 0 0 0 0 0
2 2 2 1 0 0 0 1 2 3 2 1 0 0 0 0 0 0 0 0 0 0 0 0 0 0 0 0 1 1 1 0 0 0 0 0 0 0 0 0 0 0 0
2 2 1 1 0 0 0 0 1 2 2 1 0 0 0 0 0 0 0 0 0 0 0 0 0 0 0 0 0 0 0 0 0 0 0 0 0 0 0 0 0 0 0
1 1 0 0 0 0 0 0 0 1 1 1 0 0 0 0 0 0 0 0 0 0 0 0 0 0 0 0 0 0 0 0 0 0 0 0 0 0 0 0 0 0 0
0 0 0 0 0 0 0 0 0 0 0 0 0 0 0 0 0 0 0 0 0 0 0 0 0 0 0 0 0 0 0 0 0 0 0 0 0 0 0 0 0 0 0
0 0 0 0 0 0 0 0 0 0 0 0 0 0 0 0 0 0 0 0 0 0 0 0 0 0 0 0 0 0 0 0 0 0 0 0 0 0 0 0 0 0 0
0 0 0 0 0 0 0 0 0 0 0 0 0 0 0 0 0 0 0 0 0 0 0 0 0 0 0 0 0 0 0 0 0 0 0 0 0 0 0 0 0 0 0
Wind_Speed
5 4 4 3 3 3 3 2 2 2 2 2 2 2 2 2 2 2 2 2 2 1 1 1 1 1 1 1 2 2 1 2 2 0 1 1 2 2 2 2 2 2 3
5 5 4 4 3 3 3 2 2 2 1 2 2 2 2 2 2 2 2 2 2 2 1 2 1 2 2 2 2 2 2 1 3 2 0 1 1 1 2 2 2 2 2
6 5 5 4 4 4 3 3 2 2 2 2 2 2 1 2 2 2 2 2 2 2 1 2 1 2 2 1 2 2 2 2 2 2 1 1 1 2 2 2 3 2 2
6 5 5 5 5 4 3 3 3 2 2 2 2 2 2 2 2 2 2 2 2 2 2 1 1 2 2 2 2 2 2 3 2 2 1 1 1 1 1 1 1 2 2
6 6 5 4 4 4 4 3 3 3 3 2 2 2 2 2 2 2 2 2 2 2 2 2 1 2 2 2 2 3 3 2 2 2 1 1 1 1 1 1 1 1 1
7 6 5 5 4 4 4 3 4 3 3 3 3 2 2 2 3 4 3 2 2 1 1 1 1 1 2 3 3 4 4 3 3 2 2 2 1 2 1 1 1 1 0
6 5 5 5 5 4 4 4 4 3 3 3 2 2 2 2 3 4 4 2 2 1 1 1 1 1 2 1 2 3 2 2 3 3 3 3 3 3 3 2 1 1 1
6 5 5 6 5 5 4 4 3 3 3 2 2 2 2 2 3 3 3 2 1 1 1 1 1 1 1 2 2 2 1 0 1 2 2 2 2 2 3 2 2 1 0
5 5 5 6 6 5 5 3 2 3 2 2 2 2 2 1 2 2 3 2 1 1 1 1 1 0 1 3 3 2 1 1 1 2 1 0 1 2 3 3 2 2 1
5 5 4 5 5 5 4 3 2 3 3 2 2 1 1 0 1 2 3 1 1 1 1 2 3 2 1 2 2 2 1 1 0 1 1 1 1 2 3 3 3 2 1
4 4 5 4 4 4 4 3 3 3 3 2 2 1 1 1 1 1 2 2 1 0 0 1 1 1 1 1 2 1 2 2 1 1 1 1 0 0 1 2 2 2 2
5 5 5 4 4 4 4 3 3 3 3 2 1 0 0 0 0 1 2 2 2 2 1 1 0 1 1 1 1 1 1 2 1 1 1 0 1 1 1 1 1 2 2
6 5 4 4 4 4 4 4 3 3 2 2 2 1 1 1 1 1 1 2 3 2 1 1 1 1 1 1 1 1 1 1 1 1 1 1 1 1 1 0 0 1 1
6 5 4 4 3 3 3 3 3 3 3 3 3 2 1 1 1 0 1 1 1 1 0 0 1 2 1 1 1 1 1 1 1 1 1 1 0 0 0 0 0 0 0
6 4 4 3 3 3 2 2 3 2 3 3 3 3 3 2 2 2 2 1 1 1 1 1 1 1 0 0 0 1 1 1 1 0 1 1 0 0 0 0 0 1 1
6 4 3 3 3 3 3 1 1 1 2 2 2 3 2 3 3 3 3 2 2 3 2 1 1 1 1 1 1 1 1 1 1 1 1 1 1 1 1 0 0 1 2
6 5 4 4 3 3 3 3 2 1 2 2 2 3 3 3 4 4 3 2 2 3 2 2 2 2 2 2 2 2 2 1 1 1 1 1 1 1 1 1 1 1 2
5 5 5 4 3 3 3 3 3 2 1 0 1 2 3 4 3 3 3 3 1 1 2 2 3 3 3 3 3 3 2 2 2 2 2 2 2 2 2 2 2 2 2
5 4 3 3 3 2 2 2 2 2 2 1 0 1 2 2 2 2 3 2 2 2 2 2 2 2 2 2 2 2 2 2 2 2 2 2 2 2 2 2 2 2 2
4 5 5 3 3 3 2 2 2 2 2 2 2 2 1 1 1 1 2 3 3 3 3 3 3 3 3 2 2 2 2 2 2 2 2 2 2 2 3 3 2 2 2
3 4 5 4 3 3 3 3 2 2 3 3 2 3 4 3 3 3 3 3 4 4 4 4 3 3 3 3 3 3 3 3 3 2 2 2 2 2 2 2 2 2 2
3 3 3 3 3 3 3 3 2 2 3 3 2 2 5 3 3 3 3 4 4 3 3 3 3 3 3 4 4 4 4 4 3 3 3 3 3 3 2 2 2 2 2
4 4 3 3 3 3 3 2 2 2 3 3 3 2 2 3 3 4 4 4 4 4 3 3 4 4 3 4 4 4 5 5 4 4 4 3 3 3 2 2 3 2 2
4 4 4 3 3 3 3 3 3 3 3 3 2 3 3 3 4 4 4 3 3 3 3 3 4 5 5 4 3 4 4 4 4 4 5 4 4 3 3 3 3 3 3
3 3 3 4 3 3 3 3 3 3 3 3 3 3 3 3 3 3 3 3 3 3 3 3 3 3 5 5 4 4 4 4 4 3 3 4 4 4 3 3 3 3 2
3 4 3 3 3 3 3 4 3 4 3 3 3 3 3 3 3 3 3 2 2 2 3 3 3 4 4 4 5 4 3 3 3 3 3 3 3 3 3 3 3 3 3
Wind_Direction
164 164 158 162 160 154 152 153 148 131 129 123 117 110 105 99 99 105 101 94 91 62 49 91 90 106 115 106 103 98 104 131 141 105 29 30 60 65 67 71 83 79 79
163 157 160 159 147 147 143 138 137 132 125 120 110 106 112 107 107 114 118 101 103 89 68 88 90 97 101 106 109 113 118 132 145 148 66 38 50 66 76 72 72 88 89
155 154 152 151 150 150 147 143 135 126 114 104 103 108 115 122 120 127 128 112 102 97 96 108 115 109 110 113 118 119 120 118 124 134 116 55 65 67 70 60 55 45 83
153 152 154 159 156 152 145 135 127 128 119 107 104 108 112 113 113 116 116 105 96 78 70 84 107 126 141 143 132 132 125 118 119 119 118 89 77 61 89 87 68 42 43
147 149 154 147 138 134 131 127 117 111 111 105 101 91 92 100 102 111 117 114 103 82 57 46 71 107 123 139 139 143 137 130 125 119 127 114 127 124 149 176 127 80 46
146 150 147 140 137 136 134 126 115 109 103 97 98 97 85 78 84 103 113 105 101 99 66 34 35 53 89 111 121 125 134 145 155 150 165 181 215 208 191 175 154 133 103
144 146 149 146 145 144 140 129 125 124 110 105 101 99 95 75 82 95 103 111 103 95 81 55 46 36 67 106 106 101 105 119 151 170 180 208 208 205 185 183 184 181 215
143 146 149 149 147 141 134 134 129 126 127 126 120 116 107 76 89 106 109 107 96 79 65 76 89 33 71 118 112 91 78 73 179 181 202 224 213 194 189 190 180 154 127
153 158 160 155 150 146 145 147 141 133 124 123 125 119 110 64 75 105 115 109 87 47 32 36 66 62 51 119 120 114 74 9 55 96 121 120 152 151 147 136 131 140 209
173 163 154 153 151 151 154 150 140 136 136 126 106 105 128 125 80 96 113 115 90 29 24 24 37 44 61 132 147 146 161 262 90 77 58 34 74 151 165 176 178 177 203
157 147 141 144 149 150 143 135 135 131 125 119 115 107 127 162 136 113 124 139 165 174 24 357 359 33 81 135 164 185 212 194 142 129 105 46 44 132 191 204 204 195 205
143 143 143 143 149 144 136 133 131 135 137 138 133 132 306 293 217 214 169 166 177 179 218 249 277 72 83 119 180 201 172 152 127 120 118 227 261 258 260 237 221 223 235
139 142 145 142 141 147 149 149 146 150 161 178 189 216 256 277 277 261 211 189 180 179 209 198 150 105 86 66 85 120 137 144 146 156 204 244 254 256 271 256 296 273 284
144 144 142 143 143 142 146 154 163 177 186 201 207 219 237 247 245 263 262 218 173 167 173 70 75 87 76 51 63 88 132 162 173 195 215 237 294 76 121 271 257 244 280
143 143 140 137 142 146 143 161 180 193 197 201 210 203 203 227 235 213 195 208 205 189 146 101 77 63 88 98 85 85 102 127 158 201 213 190 182 198 248 251 217 206 226
146 151 154 152 153 158 154 124 76 156 162 183 197 196 211 209 204 196 196 203 201 166 135 156 208 221 225 225 215 211 199 194 214 205 198 202 211 217 249 243 225 232 244
156 163 166 169 170 172 174 173 168 72 99 143 189 202 212 201 197 196 184 166 172 158 162 203 215 218 225 222 216 214 219 218 204 201 207 215 221 224 227 236 237 250 261
157 165 167 173 174 178 184 185 181 181 182 239 247 219 219 208 205 205 168 128 121 176 215 221 226 224 222 220 219 217 214 203 198 209 216 217 218 222 231 241 243 250 257
160 164 166 163 164 170 173 172 180 182 185 199 257 283 227 200 197 200 162 174 199 213 225 235 236 228 224 220 216 210 204 204 208 212 219 225 227 228 239 247 251 252 250
167 170 164 163 163 165 169 171 184 188 193 207 218 225 185 161 199 204 201 214 218 224 226 228 229 224 219 220 217 212 209 209 208 213 221 230 234 233 239 246 248 246 245
163 168 165 161 170 176 179 186 189 198 205 213 225 220 197 207 225 226 223 223 226 227 226 226 227 223 220 217 215 214 215 221 221 223 225 230 234 237 242 243 244 245 250
158 163 166 169 171 176 184 190 187 194 212 219 232 226 209 211 221 227 231 234 236 236 233 225 229 228 221 220 221 219 219 224 225 222 223 225 227 230 231 235 241 242 248
168 171 172 173 176 179 183 188 193 207 220 225 227 229 219 225 232 237 238 239 240 240 236 226 230 235 232 226 221 218 221 224 223 217 217 219 222 224 223 225 226 230 240
179 181 181 179 179 183 188 195 201 210 220 227 233 235 234 233 236 241 245 245 245 248 244 236 235 239 241 238 228 224 229 227 215 209 209 212 218 221 223 229 230 230 234
178 182 184 184 184 187 191 197 205 213 219 228 235 241 243 243 245 247 247 242 242 244 246 241 241 244 246 244 235 221 213 206 207 208 207 210 218 222 224 230 235 239 240
179 183 189 188 190 192 195 202 211 216 221 228 233 235 241 246 248 247 245 238 238 246 249 246 246 244 246 240 235 222 199 188 185 191 199 199 204 215 219 227 233 233 235